Погода в Тяньцзине

Китай     39°07′24″N   117°11′52″E
темп.,
°C
ветер,
м/с
пор.,
м/с
влажн.,
%
обл.,
%
осадки,
мм/ч
давл.,
гПа
погр.,
м
4 марта, чт
чт423:00+9ю410560 0.0 1019285
02:00+7ююз412630 0.0 1017358
05:00+6ююз39710 0.0 1016275
08:00+6ююз48710 0.0 1016326
11:00+11юз34550 0.0 1018659
14:00+15юз34440 0.0 1016934
17:00+16ююз35420 0.0 1015935
20:00+13ю23530 0.0 101628
5 марта, пт
пт523:00+11ююз35672 0.0 1018100
02:00+10ююз387745 0.0 1016200
05:00+9ююз368375 0.0 1015148
08:00+9ююз258137 0.0 1016191
11:00+5в10175767 0.0 1021665
14:00+2всв9145583 0.1 1026884
17:000всв91553100 0.1 1030836
20:00+1всв91527100 0.1 1033945
6 марта, сб
сб623:00−1всв81318100 0.0 1037875
02:00−2всв71320100 0.0 1038795
05:00−3всв61120100 0.0 1039703
08:00−3всв591899 0.0 1040597
11:00−1всв451675 0.0 1040761
14:00+2в221770 0.0 10381070
17:00+2ююв212070 0.0 1035735
20:000ю232738 0.0 1036217
7 марта, вс
вс723:000ю34310 0.0 1036195
02:00−2юз24370 0.0 1035175
05:00−2юз23390 0.0 1033138
08:00−1зюз12362 0.0 1033182
11:00+4зюз23300 0.0 1033713
14:00+8зюз23270 0.0 1030901
17:00+9юз33280 0.0 1029965
20:00+6ю23360 0.0 1031112
8 марта, пн
пн823:00+4ююв23410 0.0 103172
02:00+3ю24440 0.0 103196
05:00+2ю22450 0.0 103048
08:00+4ююв23410 0.0 1031113
11:00+8ююв232713 0.0 1031685
14:00+11ююв33258 0.0 10291100
17:00+10ююв342928 0.0 1027475
20:00+7ююв354046 0.0 1027182